Location: Seattle
(47.6064°N, 122.3308°W)
Time: 01:36:06
(UTC-08:00)

Envisat - Pass Details

Date: 27 October 2020
Orbit: 764 x 766 km, 98.1° (Epoch: 03 December)

Event Time Altitude Azimuth Distance (km) Brightness Sun altitude
Rises 19:37:42 0° 213° (SSW) 3,222 6.7 -17.2°
Reaches altitude 10° 19:40:55 10° 234° (SW) 2,302 6.3 -17.8°
Maximum altitude 19:43:58 16° 272° (W) 1,926 6.2 -18.3°
Drops below altitude 10° 19:47:03 10° 309° (NW) 2,313 6.2 -18.8°
Sets 19:50:18 0° 331° (NNW) 3,245 6.7 -19.3°
